Weather History for LGRP - October, 2013

Change the Weather History Date:

Friday, October 25, 2013

  Actual Average Record
Temperature  
Mean Temperature 66 °F -  
Max Temperature 76 °F 69 °F 82 °F (2003)
Min Temperature 56 °F 57 °F 56 °F (2013)
Cooling Degree Days 1    
Growing Degree Days 16 (Base 50)    
Moisture  
Dew Point 54 °F    
Average Humidity 67    
Maximum Humidity 88    
Minimum Humidity 39    
Precipitation  
Precipitation 0.00 in 0.11 in - ()
Sea Level Pressure  
Sea Level Pressure 30.04 in    
Wind  
Wind Speed 2 mph ()    
Max Wind Speed 13 mph    
Max Gust Speed -    
Visibility 6.0 miles    
Events      
Averages and records for this station are not official NWS values.
T = Trace of Precipitation, MM = Missing Value Source: Averaged Metar Reports

Daily Weather History Graph

Daily Weather History Graph

Search for Another Location

Airport or City:

Trip Planner

Search our weather history database for the weather conditions in past years. The results will help you decide how hot, cold, wet, or windy it might be!

Date:

Astronomy

Oct. 25, 2013 Rise Set
Actual Time 7:23 AM EEST 6:18 PM EEST
Civil Twilight 6:57 AM EEST 6:45 PM EEST
Nautical Twilight 6:27 AM EEST 7:15 PM EEST
Astronomical Twilight 5:57 AM EEST 7:45 PM EEST
Moon 11:23 PM EEST (10/25) 12:48 PM EEST (10/25)
Length of Visible Light 11h 47m
Length of Day
10h 55m
Waning Gibbous, 65% of the Moon is Illuminated
Oct 25
Waning Gibbous
Oct 27
Last Quarter
Nov 3
New
Nov 10
First Quarter
Nov 17
Full

Hourly Weather History & Observations

Time (EEST) Temp. Dew Point Humidity Pressure Visibility Wind Dir Wind Speed Gust Speed Precip Events Conditions
12:20 AM 60.8 °F 51.8 °F 72% 30.04 in - ESE 2.3 mph - N/A   Clear
12:50 AM 59.0 °F 51.8 °F 77% 30.04 in - Calm Calm - N/A   Clear
1:20 AM 59.0 °F 51.8 °F 77% 30.04 in - Calm Calm - N/A   Clear
1:50 AM 59.0 °F 51.8 °F 77% 30.04 in - Calm Calm - N/A   Clear
2:20 AM 59.0 °F 48.2 °F 67% 30.04 in - Calm Calm - N/A   Clear
2:50 AM 59.0 °F 51.8 °F 77% 30.04 in - Calm Calm - N/A   Clear
3:20 AM 57.2 °F 48.2 °F 72% 30.04 in - Calm Calm - N/A   Clear
3:50 AM 57.2 °F 50.0 °F 77% 30.04 in - Calm Calm - N/A   Clear
4:20 AM 57.2 °F 50.0 °F 77% 30.04 in - Calm Calm - N/A   Clear
4:50 AM 57.2 °F 48.2 °F 72% 30.01 in - Calm Calm - N/A   Clear
5:20 AM 57.2 °F 48.2 °F 72% 30.01 in - Calm Calm - N/A   Clear
5:50 AM 57.2 °F 48.2 °F 72% 30.04 in - Calm Calm - N/A   Clear
6:20 AM 57.2 °F 48.2 °F 72% 30.04 in - Calm Calm - N/A   Clear
6:50 AM 57.2 °F 48.2 °F 72% 30.04 in - ESE 1.2 mph - N/A   Clear
7:20 AM 57.2 °F 48.2 °F 72% 30.04 in - Calm Calm - N/A   Clear
7:50 AM 57.2 °F 53.6 °F 88% 30.04 in - Calm Calm - N/A   Clear
8:20 AM 57.2 °F 53.6 °F 88% 30.04 in - Calm Calm - N/A   Clear
8:50 AM 62.6 °F 51.8 °F 68% 30.04 in - Calm Calm - N/A   Clear
9:00 AM 63 °F 52 °F 59% 30.05 in 6 mi Calm Calm - -  
9:20 AM 62.6 °F 51.8 °F 68% 30.04 in - Calm Calm - N/A   Clear
9:50 AM 66.2 °F 59.0 °F 78% 30.04 in - Calm Calm - N/A   Clear
10:20 AM 66.2 °F 59.0 °F 78% 30.04 in - Calm Calm - N/A   Clear
10:50 AM 71.6 °F 59.0 °F 64% 30.06 in - West 3.5 mph - N/A   Clear
11:20 AM 71.6 °F 59.0 °F 64% 30.06 in - West 3.5 mph - N/A   Clear
11:50 AM 73.4 °F 60.8 °F 65% 30.06 in - NNE 4.6 mph - N/A   Clear
12:20 PM 73.4 °F 60.8 °F 65% 30.06 in - NNE 4.6 mph - N/A   Clear
12:50 PM 75.2 °F 57.2 °F 53% 30.04 in - NE 12.7 mph - N/A   Clear
1:20 PM 75.2 °F 57.2 °F 53% 30.04 in - NE 12.7 mph - N/A   Clear
1:50 PM 77.0 °F 57.2 °F 50% 30.04 in - NNE 12.7 mph - N/A   Clear
2:20 PM 77.0 °F 57.2 °F 50% 30.04 in - NE 10.4 mph - N/A   Clear
2:50 PM 77.0 °F 57.2 °F 50% 30.04 in - East 8.1 mph - N/A   Clear
3:00 PM 77 °F 56 °F 39% 30.04 in 6 mi East 8.1 mph - -  
3:20 PM 77.0 °F 57.2 °F 50% 30.04 in - East 8.1 mph - N/A   Clear
3:50 PM 75.2 °F 57.2 °F 53% 30.01 in - East 9.2 mph - N/A   Clear
4:20 PM 75.2 °F 57.2 °F 53% 30.01 in - East 10.4 mph - N/A   Clear
4:50 PM 75.2 °F 57.2 °F 53% 30.01 in - East 10.4 mph - N/A   Clear
5:20 PM 75.2 °F 57.2 °F 53% 30.01 in - East 8.1 mph - N/A   Clear
5:50 PM 73.4 °F 57.2 °F 57% 30.04 in - ESE 6.9 mph - N/A   Clear
6:20 PM 73.4 °F 57.2 °F 57% 30.04 in - SE 5.8 mph - N/A   Clear
6:50 PM 69.8 °F 57.2 °F 64% 30.04 in - SSW 4.6 mph - N/A   Clear
7:20 PM 69.8 °F 57.2 °F 64% 30.04 in - South 4.6 mph - N/A   Clear
7:50 PM 68.0 °F 57.2 °F 68% 30.04 in - Variable 3.5 mph - N/A   Clear
8:20 PM 64.4 °F 57.2 °F 77% 30.04 in - Calm Calm - N/A   Clear
8:50 PM 64.4 °F 59.0 °F 83% 30.04 in - Calm Calm - N/A   Clear
9:00 PM 65 °F 60 °F 78% 30.05 in 6 mi Calm Calm - -  
9:20 PM 64.4 °F 59.0 °F 83% 30.04 in - Calm Calm - N/A   Clear
9:50 PM 60.8 °F 55.4 °F 82% 30.04 in - Calm Calm - N/A   Clear
10:20 PM 60.8 °F 55.4 °F 82% 30.04 in - Calm Calm - N/A   Clear
10:50 PM 60.8 °F 50.0 °F 68% 30.06 in - Calm Calm - N/A   Clear
11:50 PM 62.6 °F 48.2 °F 59% 30.06 in - Calm Calm - N/A   Clear